Weather in Korotoyak

Russia / Altai Krai     53°45′20″N   79°40′29″E
temp.,
°C
wind,
m/s
gust,
m/s
humid.,
%
clouds,
%
prec.,
mm/h
press.,
hPa
HPBL,
m
13 may, thu
thu1301:00+13wsw3655100 0.0 1015136
04:00+12nw2483100 0.2 1014154
07:00+10nnw61088100 1.4 1015486
10:00+11nnw787895 0.3 1015736
13:00+11nnw6769100 0.4 10161076
16:00+13nnw565898 0.0 10161274
19:00+14n684940 0.0 10161415
22:00+10n3467100 0.0 101754
14 may, fri
fri1401:00+8n33710 0.0 101840
04:00+7nnw36810 0.0 101989
07:00+7n48825 0.0 1021221
10:00+12n67615 0.0 1022784
13:00+16n674695 0.0 10231486
16:00+17nnw673234 0.0 10231579
19:00+17n562758 0.0 10241484
22:00+12nw334054 0.0 102534
15 may, sat
sat1501:00+10wnw334169 0.0 102526
04:00+9w22400 0.0 102515
07:00+10wsw36455 0.0 1026103
10:00+16wsw573495 0.0 1025479
13:00+21wsw6729100 0.0 10231136
16:00+23wsw683123 0.0 10211355
19:00+24w583684 0.0 10191703
22:00+18sw4125524 0.1 1018180
16 may, sun
sun1601:00+18wsw5155689 0.3 1017292
04:00+15w5146874 0.9 1016308
07:00+15wsw3674100 1.8 1016120
10:00+20wsw2255100 0.9 1016323
13:00+24w554394 0.9 10151221
16:00+27wnw57365 0.0 10152228
19:00+26nw673797 0.0 10142020
22:00+19nne49585 0.0 1016214
17 may, mon
mon1701:00+16ne337613 0.0 101744
04:00+15e118730 0.0 101710
07:00+16wnw118141 0.0 101829
10:00+22wnw45535 0.0 1017588
13:00+26wnw55365 0.0 10161338
16:00+28wnw57305 0.0 10152477
19:00+29w473034 0.0 10132654
22:00+23sw224120 0.0 101314